Weather History for Huron, SD

Change the Weather History Date:

Wednesday, February 20, 2013

  Actual Average Record
Temperature  
Mean Temperature 4 °F 23 °F  
Max Temperature 18 °F 33 °F 65 °F (1981)
Min Temperature -11 °F 13 °F -22 °F (1889)
Degree Days  
Heating Degree Days 61 42  
Month to date heating degree days 879 895  
Since 1 July heating degree days 5446 5512  
Cooling Degree Days 0 0  
Month to date cooling degree days 0 0  
Year to date cooling degree days 0 0  
Moisture  
Dew Point -2 °F    
Average Humidity 72    
Maximum Humidity 83    
Minimum Humidity 61    
Precipitation  
Precipitation 0.00 in 0.03 in 1.12 in (2011)
Month to date precipitation 0.91 0.40  
Year to date precipitation 1.19 0.90  
Snow  
Snow 0.00 in 0.30 in 10.00 in (2011)
Month to date snowfall 10.3 5.1  
Since 1 July snowfall 29.7 28.7  
Snow Depth 7.00 in    
Sea Level Pressure  
Sea Level Pressure 30.39 in    
Wind  
Wind Speed 9 mph (ESE)    
Max Wind Speed 17 mph    
Max Gust Speed 22 mph    
Visibility 10 miles    
Events      
T = Trace of Precipitation, MM = Missing Value Source: NWS Daily Summary

Daily Weather History Graph

Daily Weather History Graph

Search for Another Location

Airport:

Trip Planner

Search our weather history database for the weather conditions in past years. The results will help you decide how hot, cold, wet, or windy it might be!

Date:

Astronomy

Feb. 20, 2013 Rise Set
Actual Time 7:24 AM CST 6:09 PM CST
Civil Twilight 6:55 AM CST 6:38 PM CST
Nautical Twilight 6:21 AM CST 7:12 PM CST
Astronomical Twilight 5:47 AM CST 7:46 PM CST
Moon 1:25 PM CST (2/20) 3:52 AM CST (2/20)
Length of Visible Light 11h 43m
Length of Day
10h 44m
Waxing Gibbous, 76% of the Moon is Illuminated
Feb 20
Waxing Gibbous
Feb 25
Full
Mar 4
Last Quarter
Mar 11
New
Mar 19
First Quarter

Hourly Weather History & Observations

Time (CST) Temp. Windchill Dew Point Humidity Pressure Visibility Wind Dir Wind Speed Gust Speed Precip Events Conditions
12:55 AM -9.0 °F -20.4 °F -13.0 °F 83% 30.53 in 10.0 mi NW 4.6 mph - N/A   Clear
1:55 AM -9.0 °F -20.4 °F -13.0 °F 83% 30.52 in 10.0 mi NW 4.6 mph - N/A   Clear
2:55 AM -9.0 °F -22.3 °F -13.0 °F 83% 30.50 in 10.0 mi NE 5.8 mph - N/A   Clear
3:55 AM -9.9 °F - -16.1 °F 74% 30.51 in 10.0 mi Calm Calm - N/A   Clear
4:55 AM -9.9 °F - -14.1 °F 82% 30.48 in 10.0 mi Calm Calm - N/A   Clear
5:55 AM -9.0 °F -20.4 °F -14.1 °F 79% 30.47 in 10.0 mi East 4.6 mph - N/A   Clear
6:55 AM -6.0 °F -20.1 °F -11.9 °F 75% 30.45 in 10.0 mi ESE 6.9 mph - N/A   Clear
7:55 AM -4.0 °F -17.8 °F -11.0 °F 72% 30.46 in 10.0 mi ESE 6.9 mph - N/A   Mostly Cloudy
8:55 AM -0.4 °F -13.4 °F -9.4 °F 66% 30.35 in 10.0 mi SE 6.9 mph - N/A   Overcast
9:55 AM 1.9 °F -12.9 °F -6.0 °F 69% 30.45 in 10.0 mi SE 9.2 mph - N/A   Overcast
10:55 AM 5.0 °F -10.8 °F -2.9 °F 70% 30.45 in 10.0 mi SE 11.5 mph - N/A   Overcast
11:55 AM 7.0 °F -7.5 °F -0.9 °F 70% 30.43 in 10.0 mi SE 10.4 mph - N/A   Overcast
12:55 PM 10.0 °F -5.9 °F 1.0 °F 67% 30.41 in 10.0 mi SSE 13.8 mph - N/A   Overcast
1:55 PM 12.9 °F -0.9 °F 3.9 °F 67% 30.38 in 10.0 mi SE 11.5 mph - N/A   Overcast
2:55 PM 15.1 °F 0.5 °F 5.0 °F 64% 30.34 in 10.0 mi SE 13.8 mph - N/A   Mostly Cloudy
3:55 PM 16.0 °F 0.6 °F 6.1 °F 65% 30.32 in 10.0 mi SE 16.1 mph - N/A   Clear
4:55 PM 17.1 °F 3.6 °F 7.0 °F 65% 30.31 in 10.0 mi SE 12.7 mph - N/A   Partly Cloudy
5:55 PM 17.1 °F 4.3 °F 8.1 °F 68% 30.30 in 10.0 mi ESE 11.5 mph - N/A   Overcast
6:55 PM 17.1 °F 3.6 °F 9.0 °F 71% 30.30 in 10.0 mi ESE 12.7 mph - N/A   Overcast
7:55 PM 17.1 °F 3.6 °F 8.1 °F 68% 30.30 in 10.0 mi SE 12.7 mph - N/A   Overcast
8:55 PM 15.8 °F 2.1 °F 8.6 °F 73% 30.21 in 10.0 mi ESE 12.7 mph - N/A   Overcast
9:55 PM 16.0 °F 2.3 °F 9.0 °F 74% 30.30 in 10.0 mi ESE 12.7 mph - N/A   Overcast
10:55 PM 15.8 °F 2.7 °F 8.6 °F 73% 30.21 in 10.0 mi ESE 11.5 mph - N/A   Overcast
11:55 PM 15.1 °F 1.8 °F 8.1 °F 74% 30.30 in 10.0 mi SE 11.5 mph - N/A   Overcast